Regional Weather Roundup
Issued by NWS

Home | Current Version | Previous Version | Graphics & Text | Print | Product List | Glossary On
Versions: 1 2 3 4 5 6 7 8 9 10 11 12 13 14 15 16 17 18 19 20 21 22 23 24 25 26 27 28 29 30 31 32 33 34 35 36 37 38 39 40 41 42 43 44 45 46 47 48 49 50
000
ASUS43 KBIS 011001
RWRND

NORTH DAKOTA REGIONAL WEATHER ROUNDUP
NATIONAL WEATHER SERVICE BISMARCK ND
400 AM CST SUN FEB 01 2015

NOTE: "FAIR" INDICATES FEW OR NO CLOUDS BELOW 12,000 FEET WITH NO
SIGNIFICANT WEATHER AND/OR OBSTRUCTIONS TO VISIBILITY.


NDZ001>003-009>011-017-011100-
NORTHWEST NORTH DAKOTA

CITY           SKY/WX    TMP DP  RH WIND       PRES   REMARKS
WILLISTON      PTCLDY    -7 -13  75 N3        30.50S
MINOT          PTCLDY    -9 -18  64 N9        30.50F WCI -26
MINOT AFB      PTCLDY    -8 -16  69 N8        30.51F WCI -25
$$

NDZ018>021-031>035-040>046-011100-
SOUTHWEST NORTH DAKOTA

CITY           SKY/WX    TMP DP  RH WIND       PRES   REMARKS
BISMARCK       LGT SNOW  -5 -12  72 N13       30.48R WCI -24
DICKINSON      LGT SNOW  -4 -10  75 N8        30.36S WCI -19
GARRISON         N/A     -8 -14  74 N7        30.47S WCI -23
HETTINGER ARPT LGT SNOW  -4  -9  79 N14       30.36R WCI -24
$$

NDZ004>008-012>016-024-026-027-054-011100-
NORTHEAST NORTH DAKOTA

CITY           SKY/WX    TMP DP  RH WIND       PRES   REMARKS
GRAND FORKS    PTCLDY   -10 -18  67 N13       30.57S WCI -30
GRND FRKS AFB  PTCLDY   -11 -20  64 N12       30.57S WCI -31
DEVILS LAKE    MOCLDY   -11 -20  64 N10       30.50S WCI -30
$$

NDZ022-023-025-028>030-036>039-047>053-011100-
SOUTHEAST NORTH DAKOTA

CITY           SKY/WX    TMP DP  RH WIND       PRES   REMARKS
FARGO          CLOUDY    -4 -12  68 N18       30.47R WCI -26
JAMESTOWN      CLOUDY    -7 -15  68 N15       30.44S WCI -28
$$



USA.gov is the U.S. government's official web portal to all federal, state and local government web resources and services.